Weather History for KEYW - July, 2013

Change the Weather History Date:

Monday, July 8, 2013

  Actual Average Record
Temperature  
Mean Temperature 84 °F 84 °F  
Max Temperature 88 °F 89 °F 95 °F (1957)
Min Temperature 79 °F 80 °F 71 °F (1892)
Degree Days  
Heating Degree Days 0 0  
Month to date heating degree days 0 0  
Since 1 June heating degree days 0 0  
Since 1 July heating degree days 0 0  
Cooling Degree Days 19 19  
Month to date cooling degree days 142 152  
Year to date cooling degree days 2329 2131  
Since 1 June cooling degree days 700 701  
Growing Degree Days 34 (Base 50)    
Moisture  
Dew Point 73 °F    
Average Humidity 72    
Maximum Humidity 85    
Minimum Humidity 59    
Precipitation  
Precipitation 0.04 in 0.11 in 2.00 in (2012)
Month to date precipitation 3.05 0.96  
Year to date precipitation 26.38 15.70  
Snow  
Snow 0.00 in - - ()
Month to date snowfall 0.0  
Since 1 June snowfall 0.0  
Since 1 July snowfall 0.0  
Snow Depth 0.00 in    
Sea Level Pressure  
Sea Level Pressure 30.09 in    
Wind  
Wind Speed 11 mph (East)    
Max Wind Speed 21 mph    
Max Gust Speed 28 mph    
Visibility 10 miles    
Events Rain    
T = Trace of Precipitation, MM = Missing Value Source: NWS Daily Summary

Daily Weather History Graph

Daily Weather History Graph

Search for Another Location

Airport or City:

Trip Planner

Search our weather history database for the weather conditions in past years. The results will help you decide how hot, cold, wet, or windy it might be!

Date:

Astronomy

Jul. 08, 2013 Rise Set
Actual Time 6:44 AM EDT 8:19 PM EDT
Civil Twilight 6:19 AM EDT 8:44 PM EDT
Nautical Twilight 5:48 AM EDT 9:15 PM EDT
Astronomical Twilight 5:16 AM EDT 9:47 PM EDT
Moon 7:03 AM EDT (7/8) 8:32 PM EDT (7/8)
Length of Visible Light 14h 25m
Length of Day
13h 34m
New Moon, 0% of the Moon is Illuminated
Jul 8
New Moon
Jul 15
First Quarter
Jul 22
Full
Jul 29
Last Quarter
Aug 6
New

Hourly Weather History & Observations

Time (EDT) Temp. Heat Index Dew Point Humidity Pressure Visibility Wind Dir Wind Speed Gust Speed Precip Events Conditions
12:53 AM 82.9 °F 89.4 °F 73.9 °F 74% 30.08 in 10.0 mi ENE 6.9 mph - N/A   Partly Cloudy
1:53 AM 82.9 °F 90.2 °F 75.0 °F 77% 30.07 in 10.0 mi NE 3.5 mph - N/A   Scattered Clouds
2:53 AM 82.0 °F 88.6 °F 75.0 °F 79% 30.06 in 10.0 mi ENE 3.5 mph - N/A   Clear
3:53 AM 81.0 °F 86.2 °F 73.9 °F 79% 30.05 in 10.0 mi NE 4.6 mph - N/A   Clear
4:53 AM 81.0 °F 86.2 °F 73.9 °F 79% 30.05 in 10.0 mi NE 3.5 mph - N/A   Clear
5:53 AM 79.0 °F - 73.9 °F 84% 30.05 in 10.0 mi ENE 4.6 mph - 0.04 in   Partly Cloudy
6:53 AM 80.1 °F 84.5 °F 73.9 °F 81% 30.05 in 10.0 mi East 8.1 mph - N/A   Clear
7:53 AM 82.0 °F 87.9 °F 73.9 °F 76% 30.07 in 10.0 mi East 10.4 mph - N/A   Clear
8:53 AM 84.0 °F 91.2 °F 73.9 °F 72% 30.08 in 10.0 mi East 13.8 mph - N/A   Clear
9:53 AM 84.9 °F 92.1 °F 73.9 °F 69% 30.10 in 10.0 mi East 16.1 mph - N/A   Partly Cloudy
10:43 AM 82.4 °F 89.5 °F 75.2 °F 79% 30.11 in 8.0 mi East 15.0 mph 23.0 mph 0.00 in Rain Light Rain
10:53 AM 84.9 °F 93.3 °F 75.0 °F 72% 30.11 in 10.0 mi East 17.3 mph - 0.00 in   Mostly Cloudy
11:53 AM 86.0 °F 95.1 °F 75.0 °F 70% 30.12 in 10.0 mi East 16.1 mph 25.3 mph N/A   Partly Cloudy
12:53 PM 87.1 °F 94.5 °F 73.0 °F 63% 30.12 in 10.0 mi ESE 17.3 mph 24.2 mph N/A   Partly Cloudy
1:53 PM 87.1 °F 93.6 °F 72.0 °F 61% 30.12 in 10.0 mi East 19.6 mph 25.3 mph N/A   Clear
2:53 PM 87.1 °F 95.4 °F 73.9 °F 65% 30.11 in 10.0 mi East 17.3 mph 23.0 mph N/A   Clear
3:53 PM 87.1 °F 94.5 °F 73.0 °F 63% 30.10 in 10.0 mi East 16.1 mph 23.0 mph N/A   Partly Cloudy
4:53 PM 87.1 °F 93.6 °F 72.0 °F 61% 30.08 in 10.0 mi East 17.3 mph - N/A   Partly Cloudy
5:53 PM 87.1 °F 93.6 °F 72.0 °F 61% 30.06 in 10.0 mi East 15.0 mph 21.9 mph N/A   Clear
6:53 PM 84.9 °F 90.1 °F 71.1 °F 63% 30.07 in 10.0 mi East 12.7 mph - N/A   Clear
7:53 PM 84.0 °F 89.0 °F 71.1 °F 65% 30.09 in 10.0 mi East 9.2 mph 19.6 mph N/A   Clear
8:53 PM 82.9 °F 87.5 °F 71.1 °F 67% 30.09 in 10.0 mi East 9.2 mph - N/A   Clear
9:53 PM 82.9 °F 85.8 °F 68.0 °F 60% 30.10 in 10.0 mi East 9.2 mph - N/A   Clear
10:53 PM 82.9 °F 86.5 °F 69.1 °F 63% 30.13 in 10.0 mi ENE 8.1 mph - N/A   Clear
11:53 PM 81.0 °F 84.9 °F 71.1 °F 72% 30.13 in 10.0 mi East 10.4 mph - N/A   Clear